Temp
10 10 10 9 10 9 10 10 10 11 11 11 11 11 10 10 9 10 10 10 10 10 10 9 9 8 9 8 8 8 8 8 8 8 8 8 7 8 8 7 7 7 7
9 10 10 10 10 10 10 10 10 11 11 11 11 10 10 9 10 10 10 10 10 10 9 9 9 9 8 8 8 8 8 7 8 8 7 7 7 7 7 6 6 6 5
9 9 9 9 10 10 11 11 10 10 10 9 9 8 8 9 9 9 10 10 9 9 9 9 9 9 8 7 7 8 8 8 8 7 6 6 6 6 6 6 5 5 4
8 9 8 9 10 10 10 10 10 9 9 8 8 8 8 8 9 9 9 9 9 9 9 8 8 8 7 7 7 7 7 7 7 6 6 6 6 6 6 5 5 4 4
8 8 8 8 8 9 9 10 9 8 8 8 9 9 8 8 8 9 8 9 9 8 9 7 7 7 7 7 7 7 7 7 6 6 6 5 5 5 4 4 4 3 2
8 8 7 8 9 9 9 9 8 8 9 8 9 9 8 8 8 8 9 9 8 8 8 7 7 7 7 7 7 6 7 6 6 5 5 4 4 3 3 2 1 1 1
8 7 7 8 10 9 9 8 8 8 8 9 9 8 8 8 8 8 8 8 8 7 7 7 7 7 6 6 6 6 6 5 5 4 4 3 2 2 2 2 1 0 0
8 8 7 8 9 9 8 8 8 8 8 8 8 8 8 8 8 8 7 7 7 6 6 6 7 6 6 6 6 5 5 4 3 3 3 2 2 2 1 1 -0 -1 -1
9 8 7 8 8 9 8 8 8 8 8 8 8 8 8 7 7 7 7 7 6 6 6 6 6 6 5 5 5 5 4 4 2 2 1 1 0 -0 -0 -1 -2 -2 -2
9 8 8 8 8 8 8 8 7 7 8 8 7 7 7 7 6 6 7 7 6 6 5 5 5 5 4 4 4 4 3 2 1 1 0 -1 -2 -2 -3 -2 -3 -3 -4
8 8 8 8 8 8 7 7 7 7 7 7 6 6 6 6 6 6 6 6 6 6 6 6 5 4 4 3 3 2 2 0 -1 -1 -2 -2 -2 -3 -3 -4 -4 -5 -4
8 8 8 8 7 7 7 6 6 6 6 6 6 5 5 5 5 5 5 6 7 7 7 6 5 4 4 3 2 2 1 0 -1 -2 -2 -2 -3 -3 -4 -4 -5 -5 -5
8 7 7 7 7 7 6 6 5 5 6 5 5 5 5 4 5 5 6 7 6 6 5 5 4 4 3 3 2 2 1 -1 -2 -2 -3 -3 -3 -4 -5 -5 -5 -5 -5
7 7 6 6 6 5 6 6 6 5 5 5 6 6 6 6 6 6 6 6 6 5 4 4 4 3 3 2 1 0 -0 -1 -2 -3 -3 -4 -4 -5 -6 -6 -6 -6 -5
7 7 6 5 5 4 4 4 5 5 6 6 7 7 7 6 6 6 6 5 5 4 3 3 2 1 1 1 1 0 -1 -2 -2 -3 -3 -3 -4 -6 -6 -6 -6 -6 -6
7 6 6 5 5 4 4 4 4 5 5 6 7 7 7 7 6 6 5 5 4 3 3 2 1 1 0 0 -0 -1 -1 -2 -2 -2 -3 -3 -5 -6 -7 -7 -7 -7 -7
8 6 6 5 5 5 4 4 4 4 5 5 6 7 7 7 6 5 5 5 4 3 3 1 1 1 0 -0 -1 -1 -2 -2 -2 -3 -2 -3 -4 -5 -6 -7 -7 -7 -7
8 7 7 6 6 6 5 5 5 6 6 5 5 6 6 6 5 5 5 4 3 3 2 2 1 1 0 -0 -1 -2 -2 -2 -2 -2 -2 -3 -4 -6 -7 -7 -7 -8 -8
8 6 6 6 6 7 6 5 6 6 7 7 6 5 5 5 5 4 5 4 3 3 2 2 1 0 -0 -1 -1 -1 -2 -2 -2 -2 -2 -3 -3 -5 -8 -8 -8 -9 -9
8 7 6 6 6 6 6 6 6 6 7 7 6 6 6 5 5 5 5 4 3 3 2 2 1 0 -0 -1 -1 -1 -2 -1 -1 -1 -1 -2 -3 -4 -6 -7 -9 -9 -9
7 6 6 6 6 7 7 7 6 6 7 7 7 7 7 7 6 5 5 4 4 3 3 2 1 0 0 -0 -0 -1 -1 -1 -1 -1 -2 -2 -4 -6 -6 -8 -9 -9 -9
7 6 6 6 7 6 7 7 6 7 7 7 7 6 6 6 6 5 5 4 4 3 3 2 1 0 0 0 0 0 -0 -0 -1 -1 -2 -3 -4 -5 -6 -8 -8 -9 -10
6 6 6 6 7 7 7 7 7 7 7 7 7 7 6 6 6 6 5 4 4 3 3 2 1 1 1 1 1 1 0 0 -0 -1 -2 -3 -4 -5 -6 -7 -9 -10 -10
6 6 6 7 7 7 7 7 7 7 7 7 7 7 7 6 6 6 5 5 4 4 3 2 2 1 1 1 1 1 0 -0 -1 -1 -2 -3 -4 -5 -6 -7 -8 -10 -9
6 6 6 8 7 7 6 7 7 7 7 7 8 7 7 6 7 6 5 5 4 4 3 2 2 2 2 2 1 1 0 -0 -1 -1 -2 -2 -3 -4 -6 -7 -8 -9 -9
6 6 6 7 7 6 6 7 7 7 7 7 8 8 7 7 7 6 6 5 4 4 3 3 2 2 2 1 1 1 0 -0 -1 -1 -2 -2 -3 -4 -5 -7 -8 -9 -9
Height
1467 1469 1471 1472 1474 1476 1478 1480 1482 1483 1485 1486 1487 1488 1490 1492 1495 1498 1500 1503 1505 1506 1508 1510 1511 1512 1514 1516 1522 1526 1529 1533 1534 1537 1539 1540 1540 1541 1543 1543 1543 1543 1542
1467 1469 1470 1472 1474 1475 1477 1479 1480 1481 1480 1482 1483 1484 1486 1489 1493 1495 1499 1501 1503 1504 1506 1507 1506 1510 1510 1513 1519 1524 1529 1532 1534 1535 1536 1538 1539 1539 1539 1540 1540 1539 1538
1467 1469 1470 1471 1473 1475 1477 1478 1478 1477 1477 1478 1479 1480 1482 1486 1489 1494 1497 1500 1502 1503 1504 1505 1504 1505 1508 1513 1519 1524 1528 1530 1532 1532 1533 1535 1535 1535 1535 1534 1534 1533 1534
1468 1469 1469 1471 1472 1475 1475 1477 1477 1477 1477 1477 1478 1479 1480 1484 1488 1492 1496 1498 1500 1502 1502 1503 1505 1507 1510 1515 1520 1524 1527 1528 1529 1530 1531 1531 1531 1530 1530 1530 1530 1530 1530
1467 1468 1469 1471 1473 1475 1475 1477 1477 1477 1478 1478 1478 1480 1480 1483 1487 1491 1495 1497 1499 1501 1503 1505 1506 1509 1512 1518 1521 1524 1526 1526 1528 1528 1528 1529 1529 1529 1529 1528 1528 1528 1528
1467 1468 1470 1472 1474 1475 1475 1478 1478 1479 1479 1480 1481 1482 1484 1486 1488 1491 1494 1498 1500 1503 1504 1508 1510 1513 1517 1520 1523 1524 1524 1525 1526 1527 1528 1528 1529 1528 1527 1527 1527 1526 1527
1466 1468 1470 1472 1474 1476 1477 1479 1480 1482 1482 1483 1484 1486 1487 1489 1493 1495 1498 1501 1504 1507 1510 1512 1514 1516 1519 1521 1523 1524 1525 1525 1526 1526 1527 1528 1528 1527 1527 1526 1525 1525 1524
1466 1468 1471 1472 1474 1476 1478 1480 1482 1484 1486 1487 1488 1491 1492 1496 1498 1500 1502 1505 1508 1511 1513 1515 1517 1519 1521 1523 1524 1525 1525 1526 1527 1527 1528 1528 1527 1526 1525 1524 1524 1524 1524
1466 1469 1471 1473 1475 1477 1480 1482 1484 1486 1488 1491 1493 1494 1497 1499 1502 1504 1506 1508 1510 1513 1516 1519 1520 1521 1522 1523 1524 1525 1526 1526 1527 1527 1527 1526 1526 1525 1524 1523 1522 1522 1522
1466 1468 1471 1474 1476 1479 1482 1484 1486 1488 1490 1493 1496 1499 1501 1503 1507 1509 1511 1513 1514 1516 1519 1521 1523 1524 1524 1525 1525 1526 1526 1527 1527 1527 1527 1526 1526 1524 1523 1523 1522 1522 1522
1466 1469 1472 1475 1478 1480 1483 1486 1489 1491 1494 1497 1500 1502 1504 1507 1511 1513 1516 1516 1517 1519 1521 1523 1525 1526 1527 1527 1528 1528 1529 1529 1529 1529 1529 1529 1528 1526 1524 1523 1522 1522 1522
1466 1470 1473 1475 1479 1482 1485 1488 1492 1494 1497 1500 1502 1505 1508 1511 1514 1516 1517 1519 1521 1523 1524 1525 1526 1527 1528 1528 1529 1529 1529 1529 1530 1530 1530 1529 1528 1527 1525 1524 1523 1522 1521
1466 1470 1474 1477 1481 1485 1488 1490 1493 1496 1499 1501 1504 1507 1510 1513 1515 1517 1519 1522 1524 1526 1527 1528 1528 1528 1529 1529 1530 1529 1529 1530 1530 1530 1529 1528 1527 1526 1524 1523 1522 1521 1520
1465 1470 1474 1478 1482 1488 1491 1493 1495 1498 1500 1502 1505 1508 1511 1514 1517 1520 1522 1525 1527 1528 1528 1528 1529 1529 1530 1530 1531 1531 1531 1530 1530 1529 1529 1528 1527 1525 1524 1523 1521 1519 1518
1466 1470 1474 1479 1482 1488 1492 1495 1498 1501 1503 1505 1507 1510 1512 1515 1519 1522 1525 1527 1528 1529 1529 1530 1530 1531 1531 1531 1532 1532 1532 1531 1530 1530 1529 1527 1525 1524 1523 1522 1521 1519 1518
1464 1469 1473 1478 1482 1486 1490 1494 1499 1502 1504 1508 1511 1513 1515 1519 1521 1524 1527 1528 1529 1530 1531 1531 1531 1532 1533 1533 1532 1532 1532 1532 1531 1530 1528 1526 1525 1524 1523 1522 1521 1519 1517
1463 1468 1473 1478 1481 1484 1489 1493 1496 1501 1505 1509 1512 1515 1518 1520 1523 1526 1528 1529 1531 1531 1532 1532 1533 1533 1534 1533 1533 1533 1533 1532 1531 1530 1528 1527 1525 1524 1522 1521 1520 1518 1516
1462 1467 1472 1476 1480 1484 1488 1493 1497 1500 1502 1507 1512 1516 1519 1522 1525 1527 1529 1531 1532 1532 1533 1533 1534 1534 1534 1534 1533 1533 1533 1532 1532 1530 1528 1527 1525 1524 1522 1521 1519 1517 1515
1460 1466 1471 1474 1479 1483 1488 1493 1497 1501 1504 1506 1510 1515 1519 1523 1526 1528 1530 1532 1532 1533 1533 1534 1535 1535 1534 1534 1534 1534 1533 1533 1532 1531 1529 1528 1526 1524 1522 1520 1518 1517 1514
1458 1464 1469 1472 1477 1481 1486 1491 1495 1500 1503 1506 1510 1513 1516 1520 1523 1527 1530 1531 1532 1533 1534 1535 1535 1536 1535 1535 1535 1534 1534 1534 1533 1532 1530 1528 1527 1525 1523 1521 1518 1516 1514
1454 1461 1466 1471 1476 1479 1484 1489 1493 1498 1502 1505 1509 1513 1516 1520 1523 1527 1529 1531 1532 1533 1534 1535 1535 1536 1535 1535 1535 1535 1535 1535 1534 1532 1531 1529 1527 1526 1524 1522 1520 1516 1513
1451 1457 1462 1468 1473 1477 1482 1487 1492 1496 1501 1504 1508 1512 1517 1520 1523 1526 1529 1531 1532 1534 1534 1535 1535 1536 1536 1536 1535 1535 1535 1535 1534 1533 1532 1530 1528 1526 1524 1522 1519 1516 1512
1447 1453 1459 1464 1470 1476 1480 1485 1490 1494 1499 1503 1506 1510 1514 1518 1521 1525 1528 1530 1532 1534 1535 1535 1535 1535 1535 1536 1535 1535 1535 1535 1534 1533 1532 1530 1529 1527 1524 1522 1519 1516 1513
1442 1448 1454 1460 1466 1472 1477 1482 1487 1492 1497 1500 1504 1509 1513 1516 1519 1523 1526 1528 1531 1533 1534 1535 1535 1535 1535 1535 1535 1535 1535 1535 1535 1534 1533 1531 1529 1527 1525 1523 1520 1517 1514
1438 1443 1449 1455 1461 1468 1473 1478 1484 1489 1494 1498 1502 1507 1511 1514 1518 1521 1524 1527 1530 1532 1533 1534 1534 1534 1534 1535 1536 1536 1536 1536 1536 1535 1533 1532 1530 1528 1525 1523 1520 1518 1514
1433 1439 1445 1451 1457 1463 1469 1474 1479 1485 1490 1495 1500 1504 1508 1512 1516 1519 1522 1525 1528 1530 1532 1533 1533 1534 1535 1536 1537 1537 1537 1536 1536 1535 1533 1532 1530 1528 1525 1523 1521 1518 1515
Wind_Speed
11 11 11 13 13 11 9 6 6 8 8 10 11 12 10 11 13 14 13 12 12 10 13 14 17 13 23 27 22 21 16 14 17 16 15 13 13 11 9 11 15 18 19
12 10 12 10 8 7 5 4 5 9 12 11 14 17 16 14 11 11 12 11 11 10 11 15 17 17 26 28 28 21 23 19 12 12 16 13 14 16 16 17 18 19 21
10 7 7 8 7 5 5 5 7 8 9 8 6 7 13 12 11 13 9 9 12 10 9 15 21 24 27 26 21 26 25 18 16 13 16 18 19 19 20 21 20 18 18
7 9 9 8 8 7 6 2 3 1 2 1 3 3 6 9 13 13 11 8 8 7 6 5 6 13 22 20 24 23 16 10 8 9 11 13 15 14 14 13 13 12 11
12 9 7 8 8 8 5 2 1 4 6 8 8 7 6 8 10 10 8 6 7 14 16 12 9 7 12 20 15 13 7 7 10 10 9 8 8 7 7 7 6 7 6
11 10 11 10 9 7 4 2 9 10 12 14 14 12 10 11 13 15 19 23 17 17 15 14 15 14 12 11 8 7 6 6 6 2 2 3 4 3 3 3 4 4 6
11 13 12 10 10 8 7 8 14 14 17 18 18 18 19 19 23 23 19 18 17 16 15 16 16 13 10 8 6 5 5 5 3 3 3 3 4 6 7 7 6 7 10
11 14 13 13 12 12 12 14 18 17 16 19 20 19 22 21 19 17 17 18 19 18 15 14 13 12 10 7 6 5 5 3 2 1 1 2 4 6 5 4 5 6 7
14 15 16 14 15 13 14 16 18 16 16 15 16 17 18 17 15 17 20 21 20 19 16 14 12 11 9 7 6 6 5 5 5 4 5 5 6 8 5 2 1 1 3
16 16 17 15 15 14 16 18 19 20 21 20 22 22 23 23 20 19 16 14 15 17 15 14 12 9 8 6 4 5 6 7 6 8 10 13 15 15 14 11 5 4 5
18 18 17 16 16 16 20 21 20 21 22 24 25 23 24 23 20 16 13 12 14 15 14 13 10 8 5 4 3 2 5 4 5 8 8 7 5 6 9 13 9 7 5
20 20 19 18 18 18 21 22 22 23 21 21 22 24 22 21 18 15 13 12 12 12 13 10 8 6 4 4 3 3 3 4 5 5 1 3 5 6 8 8 7 7 6
23 22 22 22 17 18 22 24 23 20 20 23 24 24 23 21 19 15 13 12 13 11 10 8 8 7 7 7 6 4 4 5 5 2 3 7 9 9 7 7 7 6 6
25 26 25 24 21 20 21 20 20 19 21 23 23 23 22 20 18 16 15 14 11 8 8 9 8 7 7 7 7 6 5 3 2 1 4 7 8 8 8 9 10 8 4
28 28 27 24 22 23 21 20 19 18 17 20 20 20 22 21 18 16 14 12 9 9 8 7 7 9 8 7 6 6 5 4 4 5 6 7 8 9 6 6 9 8 8
30 32 28 25 24 24 24 24 18 17 18 17 17 18 19 17 17 16 14 10 8 8 7 8 8 7 6 5 5 6 5 6 6 7 9 8 8 6 8 7 8 8 9
30 33 29 26 24 26 26 26 26 22 19 18 17 17 16 18 18 16 12 8 7 7 6 7 6 4 3 3 3 4 5 5 6 6 7 8 8 9 9 9 10 10 10
30 32 31 27 24 26 26 26 24 26 26 24 19 17 18 19 19 15 11 8 8 7 6 5 3 3 2 2 2 3 4 5 6 5 8 9 10 10 10 10 11 12 13
31 35 33 28 24 24 25 26 25 25 25 25 24 22 21 20 19 15 12 8 7 6 5 3 1 2 1 2 2 3 4 5 7 8 9 10 11 11 11 12 12 12 14
28 33 35 30 25 24 25 27 28 26 26 25 25 25 26 24 23 19 13 10 7 5 4 1 1 1 1 3 3 4 4 5 8 9 10 11 12 14 17 17 15 17 19
27 34 39 33 28 25 27 28 28 27 27 25 24 23 22 21 21 19 15 10 6 4 2 0 1 1 2 3 4 4 5 6 8 9 10 10 12 13 13 16 15 16 17
28 35 40 36 31 27 28 28 29 28 27 26 24 23 21 20 19 18 16 11 8 3 2 1 1 1 2 3 4 5 6 7 9 10 10 11 11 12 12 13 16 17 18
31 35 40 38 34 28 28 29 29 28 27 26 25 24 24 23 20 18 16 13 10 6 1 1 1 1 2 3 4 5 6 7 8 9 11 11 12 13 13 15 18 18 20
35 36 41 39 36 33 29 30 30 28 27 27 25 24 24 23 19 17 16 14 11 9 4 1 1 2 3 3 4 5 5 7 8 10 11 11 12 13 15 16 16 18 21
37 37 41 40 38 36 32 32 32 30 29 28 25 24 24 23 19 17 16 14 12 10 6 3 2 2 3 4 4 4 5 6 8 9 10 11 13 14 14 15 20 19 21
39 38 42 41 39 38 35 34 34 33 31 29 25 23 24 23 19 17 16 14 13 11 9 5 4 3 4 4 4 3 4 5 7 9 10 11 13 15 16 16 16 18 18
Wind_Direction
161 167 166 162 163 171 187 200 216 238 245 243 239 238 234 221 210 228 228 225 231 244 243 235 239 275 240 201 194 185 190 208 186 168 203 210 212 221 233 245 254 258 261
185 193 170 173 176 178 197 230 273 285 274 266 250 243 238 229 204 206 228 233 241 244 249 255 242 250 231 204 198 190 186 188 207 262 233 235 264 261 265 266 259 259 261
187 179 174 181 190 202 228 260 273 286 283 263 265 237 221 214 201 209 214 228 233 244 258 275 249 237 203 192 189 185 192 207 259 258 248 255 261 268 273 273 270 269 271
168 194 200 192 197 196 186 227 300 222 44 204 173 168 183 196 191 211 217 221 224 236 240 210 233 230 213 189 180 193 215 252 255 250 251 257 263 271 274 278 280 280 281
189 197 183 172 166 160 148 202 354 90 84 86 108 98 126 134 152 172 177 177 140 129 109 96 100 122 203 186 204 205 215 250 249 262 267 271 278 285 289 298 301 292 309
204 178 172 169 165 147 146 151 111 102 102 98 98 115 127 120 122 131 134 127 116 124 116 126 123 133 135 150 161 188 218 235 240 246 244 265 271 288 294 301 302 309 299
204 172 174 165 170 156 147 137 129 113 109 117 108 107 111 113 118 120 124 124 124 126 124 125 129 130 138 151 161 173 175 187 197 227 247 260 286 298 294 279 269 256 255
192 165 162 167 166 150 138 139 135 130 119 117 118 111 107 116 118 123 126 125 122 121 124 130 132 125 124 131 124 134 144 145 135 211 270 318 327 327 312 282 270 272 269
188 173 176 173 163 148 145 143 143 144 135 128 124 125 122 117 125 129 130 132 135 132 122 115 116 120 119 102 91 91 95 87 81 70 52 43 27 32 21 326 338 179 124
185 178 174 166 165 152 153 145 141 136 129 125 120 118 118 117 124 128 132 127 127 122 121 122 118 107 103 86 57 59 72 68 51 35 36 30 23 12 6 6 345 356 349
186 176 169 160 157 152 154 149 144 135 130 128 125 126 126 126 130 131 132 137 130 127 120 117 112 107 98 85 78 60 78 102 65 51 40 57 45 12 345 343 3 27 4
185 176 166 156 156 156 156 149 143 141 143 144 141 139 136 136 138 138 138 130 118 116 114 105 94 90 94 113 126 116 90 91 95 85 342 296 288 289 306 326 6 353 335
183 173 163 151 155 160 157 149 146 153 158 151 151 148 144 143 140 139 135 125 120 115 107 101 92 75 79 100 101 106 96 100 116 153 285 305 320 330 2 7 358 341 346
181 171 161 153 157 160 160 159 161 161 158 156 155 150 146 146 146 140 133 127 117 110 101 88 77 85 93 87 75 74 81 85 97 201 295 320 321 330 24 4 355 11 337
181 172 162 164 165 158 167 171 174 170 170 164 161 157 154 151 143 139 134 126 119 107 95 88 94 94 89 79 68 61 58 49 30 10 335 335 16 26 18 359 348 339 335
182 174 172 170 167 161 164 163 171 172 168 167 162 160 154 151 147 143 136 126 119 109 97 85 91 89 78 59 52 51 42 33 18 12 8 18 18 4 354 355 355 360 349
189 182 176 174 181 177 175 174 170 165 164 166 164 161 158 151 150 146 135 129 123 123 96 86 89 104 101 74 45 29 40 34 19 12 10 21 15 11 8 11 3 356 340
196 190 184 181 193 188 184 181 179 170 163 163 163 163 159 157 154 146 140 138 129 122 101 80 84 127 114 78 70 58 51 43 19 18 25 20 15 15 10 1 356 352 350
198 191 189 189 199 197 189 186 181 177 173 168 165 164 163 163 159 156 157 146 125 113 104 68 86 148 128 94 79 69 52 26 18 10 18 13 9 8 0 355 357 358 353
203 196 193 195 196 197 191 186 184 184 183 180 177 173 169 173 174 174 171 152 131 117 104 68 50 157 110 92 92 86 70 36 17 7 11 14 16 15 11 13 7 355 352
207 195 196 200 198 203 197 192 192 191 190 187 186 185 184 181 182 184 184 167 148 119 93 102 345 140 101 96 88 71 51 27 11 12 16 15 16 10 8 10 359 340 340
212 198 199 202 201 204 202 198 197 197 195 193 192 190 189 190 190 192 196 189 181 161 65 356 325 104 93 96 89 71 53 36 21 15 13 14 14 7 3 354 344 353 359
214 201 201 203 205 206 204 201 200 200 197 197 198 193 191 195 195 198 200 199 197 195 200 345 324 110 114 104 89 69 49 33 19 13 13 12 9 6 2 358 357 3 7
213 205 202 204 205 206 207 203 203 202 199 200 200 196 197 197 197 199 201 202 199 203 210 308 288 137 128 116 100 74 50 29 15 13 12 12 13 10 8 5 7 11 3
213 207 205 206 206 208 207 206 205 204 202 205 201 198 198 200 200 200 202 201 200 205 210 260 262 175 145 134 113 85 51 26 14 16 12 15 16 13 12 14 16 1 351
212 209 207 207 208 208 210 207 207 206 205 207 203 201 202 204 203 204 203 201 199 203 208 237 251 195 157 144 129 91 49 24 18 17 13 16 18 15 12 12 4 351 356